Regional Weather Roundup
Issued by NWS

Home | Current Version | Previous Version | Graphics & Text | Print | Product List | Glossary Off
Versions: 1 2 3 4 5 6 7 8 9 10 11 12 13 14 15 16 17 18 19 20 21 22 23 24 25 26 27 28 29 30 31 32 33 34 35 36 37 38 39 40 41 42 43 44 45 46 47 48 49 50

000
ASUS43 KTOP 240508
RWRKS

WEATHER ROUNDUP FOR KANSAS
NATIONAL WEATHER SERVICE GOODLAND KS
1200 AM CDT FRI OCT 24 2014

NOTE:  "FAIR" INDICATES FEW OR NO CLOUDS BELOW 12,000 FEET WITH NO
SIGNIFICANT WEATHER AND/OR OBSTRUCTIONS TO VISIBILITY.

KSZ001>006-013>018-027>032-041>047-240600-
NORTHWEST KANSAS

CITY           SKY/WX    TMP DP  RH WIND       PRES   REMARKS
GOODLAND       MOCLDY    59  52  77 SW15      30.08F
HAYS           CLEAR     57  52  82 S7        30.06F
HILL CITY      CLEAR     59  54  83 SW3       30.04S
RUSSELL        CLEAR     59  56  89 S10       30.04F
$$

KSZ061>065-074>080-084>089-240600-
SOUTHWEST KANSAS

CITY           SKY/WX    TMP DP  RH WIND       PRES   REMARKS
DODGE CITY     CLEAR     61  57  87 S9        30.09R
ELKHART          N/A     59  51  75 S9          N/A
GARDEN CITY    PTCLDY    58  55  90 S6        30.08S FOG
GREAT BEND     CLEAR     57  54  88 S7        30.07S
LIBERAL        CLEAR     61  52  72 SW8       30.11S
PRATT          CLEAR     61  57  88 S5        30.09R
$$

KSZ066>073-081>083-090>101-240600-
SOUTHEAST KANSAS

CITY           SKY/WX    TMP DP  RH WIND       PRES   REMARKS
CHANUTE        CLEAR     56  55  97 S7        30.10F FOG
COFFEYVILLE    CLOUDY    56  54  93 S5        30.11S
HUTCHINSON     CLEAR     61  57  87 S6        30.07S
MEDICINE LODGE   N/A     63  60  90 CALM      30.06S
NEWTON         PTCLDY    61  54  77 S8        30.09F
PARSONS        CLEAR     55  55 100 CALM      30.12F FOG
WICHITA INTL   MOCLDY    63  59  87 S10       30.07S
WICHITA JABRA  MOCLDY    60  58  92 S8        30.07S
WICHITA MCCONL CLOUDY    62  62 100 SE8       30.08S
WINFIELD       MOCLDY    62  58  86 SE7       30.10S
$$

KSZ007>012-019>026-033>040-048>060-102>105-240600-
NORTHEAST KANSAS

CITY           SKY/WX    TMP DP  RH WIND       PRES   REMARKS
CONCORDIA      MOCLDY    62  60  93 S13       30.04S
EMPORIA        PTCLDY    57  57 100 S12       30.08F FOG
LAWRENCE       CLEAR     54  53  97 SE5       30.08F FOG
MANHATTAN      PTCLDY    60  58  92 CALM      30.06S
MARYSVILLE     MOCLDY    59  55  88 CALM      30.04S
OLATHE IND     CLEAR     55  55 100 S6        30.09F FOG
OLATHE EXE     MOCLDY    57  57 100 S5        30.08F FOG
SALINA         PTCLDY    61  57  87 S6        30.06R
TOPEKA BILLARD PTCLDY    60  59  96 S7        30.07F
TOPEKA FORBES  PTCLDY    57  56  96 S6        30.07F FOG
$$



USA.gov is the U.S. government's official web portal to all federal, state and local government web resources and services.